Location: B�retswil
(47.3376°N, 8.8534°E)
Time: 23:24:21
(UTC+00:00)

SL-4 R/B - Pass Details

Date: 03 March 2021
Orbit: 428 x 663 km, 51.6° (Epoch: 20 April)

Event Time Altitude Azimuth Distance (km) Brightness Sun altitude
Rises 18:10:33 0° 288° (WNW) 2,506 7.1 -10.6°
Reaches altitude 10° 18:12:49 10° 295° (WNW) 1,598 5.6 -11.0°
Maximum altitude 18:16:15 43° 8° (N) 632 2.3 -11.5°
Enters shadow 18:18:27 18° 74° (ENE) 1,125 3.0 -11.9°
